Location: Theodore Roosevelt Nature Center
(40.5943°N, 73.5104°W)
Time: 13:23:38
(UTC-05:00)

NOAA 19 - Visible Passes

Search period start: 14 December 2019 00:00
Search period end: 24 December 2019 00:00
Orbit: 842 x 861 km, 99.2° (Epoch: 13 December)

Date Brightness Start Highest point End Pass type
(mag) Time Alt. Az. Time Alt. Az. Time Alt. Az.
14 Dec 8.4 04:06:16 10° E 04:07:06 10° E 04:07:55 10° E visible
14 Dec 5.2 05:42:55 10° NNE 05:48:28 87° E 05:53:59 10° SSW visible
14 Dec 6.2 17:09:05 10° S 17:14:28 52° W 17:19:54 10° NNW visible
15 Dec 5.5 05:31:16 10° NNE 05:36:47 69° ESE 05:42:15 10° S visible
15 Dec 5.8 16:57:15 10° S 17:02:45 67° WSW 17:08:18 10° NNW visible
16 Dec 6.0 05:19:39 10° NNE 05:25:05 54° E 05:30:26 10° S visible
16 Dec 8.7 18:32:18 10° W 18:32:29 10° W 18:32:37 10° W visible
17 Dec 6.5 05:08:07 10° NNE 05:13:21 42° E 05:18:31 10° S visible
17 Dec 8.3 18:17:57 10° WSW 18:20:37 14° W 18:23:18 10° WNW visible
18 Dec 6.9 04:56:38 10° NNE 05:01:36 33° E 05:06:29 10° SSE visible
18 Dec 5.9 06:37:18 10° N 06:42:11 33° WNW 06:47:01 10° SW visible
18 Dec 8.1 18:05:10 10° SW 18:08:47 18° W 18:12:26 10° NW visible
19 Dec 7.3 04:45:15 10° NE 04:49:49 26° E 04:54:20 10° SSE visible
19 Dec 5.6 06:25:26 10° N 06:30:35 41° WNW 06:35:41 10° SW visible
19 Dec 7.8 17:52:43 10° SW 17:56:59 23° W 18:01:17 10° NW visible
20 Dec 7.7 04:34:00 10° NE 04:38:01 20° E 04:42:01 10° SE visible
20 Dec 5.3 06:13:37 10° N 06:18:58 52° WNW 06:24:15 10° SW visible
20 Dec 7.4 17:40:28 10° SSW 17:45:12 29° W 17:49:58 10° NW visible
21 Dec 8.0 04:22:57 10° NE 04:26:12 16° E 04:29:27 10° SE visible
21 Dec 5.2 06:01:51 10° N 06:07:19 66° WNW 06:12:45 10° SSW visible
21 Dec 7.0 17:28:22 10° SSW 17:33:26 36° W 17:38:32 10° NNW visible
22 Dec 8.3 04:12:20 10° ENE 04:14:22 12° E 04:16:23 10° ESE visible
22 Dec 5.1 05:50:07 10° NNE 05:55:40 84° WNW 06:01:09 10° SSW visible
22 Dec 6.5 17:16:23 10° S 17:21:42 46° W 17:27:02 10° NNW visible
23 Dec 5.4 05:38:27 10° NNE 05:43:59 78° ESE 05:49:27 10° S visible
23 Dec 6.0 17:04:30 10° S 17:09:58 59° WSW 17:15:28 10° NNW visible
